Year,Month,Day,Hour,Minute,Value (Times are PST for temperature in C)
2008,10,18,00,00,5.20
2008,10,18,00,01,5.10
2008,10,18,00,02,5.10
2008,10,18,00,03,5.10
2008,10,18,00,04,5.10
2008,10,18,00,05,5.10
2008,10,18,00,06,5.10
2008,10,18,00,07,5.00
2008,10,18,00,08,5.00
2008,10,18,00,09,4.90
2008,10,18,00,10,4.90
2008,10,18,00,11,4.90
2008,10,18,00,12,4.90
2008,10,18,00,13,4.80
2008,10,18,00,14,4.80
2008,10,18,00,15,4.80
2008,10,18,00,16,4.80
2008,10,18,00,17,4.80
2008,10,18,00,18,4.80
2008,10,18,00,19,4.80
2008,10,18,00,20,4.80
2008,10,18,00,21,4.80
2008,10,18,00,22,4.80
2008,10,18,00,23,4.90
2008,10,18,00,24,4.90
2008,10,18,00,25,5.10
2008,10,18,00,26,5.30
2008,10,18,00,27,5.40
2008,10,18,00,28,5.60
2008,10,18,00,29,5.90
2008,10,18,00,30,6.00
2008,10,18,00,31,6.20
2008,10,18,00,32,6.20
2008,10,18,00,33,6.30
2008,10,18,00,34,6.30
2008,10,18,00,35,6.30
2008,10,18,00,36,6.30
2008,10,18,00,37,6.30
2008,10,18,00,38,6.30
2008,10,18,00,39,6.30
2008,10,18,00,40,6.30
2008,10,18,00,41,6.30
2008,10,18,00,42,6.30
2008,10,18,00,43,6.40
2008,10,18,00,44,6.40
2008,10,18,00,45,6.50
2008,10,18,00,46,6.50
2008,10,18,00,47,6.50
2008,10,18,00,48,6.60
2008,10,18,00,49,6.60
2008,10,18,00,50,6.60
2008,10,18,00,51,6.60
2008,10,18,00,52,6.60
2008,10,18,00,53,6.60
2008,10,18,00,54,6.50
2008,10,18,00,55,6.50
2008,10,18,00,56,6.40
2008,10,18,00,57,6.40
2008,10,18,00,58,6.40
2008,10,18,00,59,6.40
2008,10,18,01,00,6.30
2008,10,18,01,01,6.30
2008,10,18,01,02,6.30
2008,10,18,01,03,6.20
2008,10,18,01,04,6.20
2008,10,18,01,05,6.10
2008,10,18,01,06,6.10
2008,10,18,01,07,6.00
2008,10,18,01,08,5.90
2008,10,18,01,09,5.80
2008,10,18,01,10,5.70
2008,10,18,01,11,5.60
2008,10,18,01,12,5.50
2008,10,18,01,13,5.40
2008,10,18,01,14,5.30
2008,10,18,01,15,5.30
2008,10,18,01,16,5.20
2008,10,18,01,17,5.20
2008,10,18,01,18,5.20
2008,10,18,01,19,5.10
2008,10,18,01,20,5.10
2008,10,18,01,21,5.00
2008,10,18,01,22,5.00
2008,10,18,01,23,4.90
2008,10,18,01,24,4.90
2008,10,18,01,25,4.90
2008,10,18,01,26,4.80
2008,10,18,01,27,4.80
2008,10,18,01,28,4.80
2008,10,18,01,29,4.70
2008,10,18,01,30,4.70
2008,10,18,01,31,4.60
2008,10,18,01,32,4.60
2008,10,18,01,33,4.60
2008,10,18,01,34,4.50
2008,10,18,01,35,4.50
2008,10,18,01,36,4.40
2008,10,18,01,37,4.40
2008,10,18,01,38,4.40
2008,10,18,01,39,4.40
2008,10,18,01,40,4.30
2008,10,18,01,41,4.30
2008,10,18,01,42,4.30
2008,10,18,01,43,4.30
2008,10,18,01,44,4.20
2008,10,18,01,45,4.20
2008,10,18,01,46,4.20
2008,10,18,01,47,4.20
2008,10,18,01,48,4.20
2008,10,18,01,49,4.20
2008,10,18,01,50,4.10
2008,10,18,01,51,4.10
2008,10,18,01,52,4.10
2008,10,18,01,53,4.10
2008,10,18,01,54,4.00
2008,10,18,01,55,4.00
2008,10,18,01,56,4.00
2008,10,18,01,57,3.90
2008,10,18,01,58,3.90
2008,10,18,01,59,3.90
2008,10,18,02,00,3.80
2008,10,18,02,01,3.80
2008,10,18,02,02,3.80
2008,10,18,02,03,3.80
2008,10,18,02,04,3.80
2008,10,18,02,05,3.70
2008,10,18,02,06,3.70
2008,10,18,02,07,3.70
2008,10,18,02,08,3.70
2008,10,18,02,09,3.70
2008,10,18,02,10,3.70
2008,10,18,02,11,3.60
2008,10,18,02,12,3.60
2008,10,18,02,13,3.60
2008,10,18,02,14,3.60
2008,10,18,02,15,3.60
2008,10,18,02,16,3.60
2008,10,18,02,17,3.50
2008,10,18,02,18,3.50
2008,10,18,02,19,3.50
2008,10,18,02,20,3.40
2008,10,18,02,21,3.40
2008,10,18,02,22,3.40
2008,10,18,02,23,3.40
2008,10,18,02,24,3.40
2008,10,18,02,25,3.40
2008,10,18,02,26,3.30
2008,10,18,02,27,3.30
2008,10,18,02,28,3.30
2008,10,18,02,29,3.30
2008,10,18,02,30,3.30
2008,10,18,02,31,3.30
2008,10,18,02,32,3.30
2008,10,18,02,33,3.30
2008,10,18,02,34,3.30
2008,10,18,02,35,3.30
2008,10,18,02,36,3.20
2008,10,18,02,37,3.20
2008,10,18,02,38,3.20
2008,10,18,02,39,3.20
2008,10,18,02,40,3.20
2008,10,18,02,41,3.20
2008,10,18,02,42,3.20
2008,10,18,02,43,3.20
2008,10,18,02,44,3.10
2008,10,18,02,45,3.10
2008,10,18,02,46,3.10
2008,10,18,02,47,3.10
2008,10,18,02,48,3.00
2008,10,18,02,49,3.00
2008,10,18,02,50,3.00
2008,10,18,02,51,2.90
2008,10,18,02,52,2.90
2008,10,18,02,53,2.90
2008,10,18,02,54,2.90
2008,10,18,02,55,2.90
2008,10,18,02,56,2.90
2008,10,18,02,57,2.90
2008,10,18,02,58,2.90
2008,10,18,02,59,2.90
2008,10,18,03,00,2.80
2008,10,18,03,01,2.80
2008,10,18,03,02,2.80
2008,10,18,03,03,2.80
2008,10,18,03,04,2.80
2008,10,18,03,05,2.80
2008,10,18,03,06,2.80
2008,10,18,03,07,2.80
2008,10,18,03,08,2.80
2008,10,18,03,09,2.80
2008,10,18,03,10,2.80
2008,10,18,03,11,2.80
2008,10,18,03,12,2.70
2008,10,18,03,13,2.70
2008,10,18,03,14,2.70
2008,10,18,03,15,2.70
2008,10,18,03,16,2.70
2008,10,18,03,17,2.70
2008,10,18,03,18,2.70
2008,10,18,03,19,2.60
2008,10,18,03,20,2.60
2008,10,18,03,21,2.60
2008,10,18,03,22,2.60
2008,10,18,03,23,2.60
2008,10,18,03,24,2.60
2008,10,18,03,25,2.50
2008,10,18,03,26,2.50
2008,10,18,03,27,2.50
2008,10,18,03,28,2.50
2008,10,18,03,29,2.50
2008,10,18,03,30,2.50
2008,10,18,03,31,2.50
2008,10,18,03,32,2.40
2008,10,18,03,33,2.40
2008,10,18,03,34,2.40
2008,10,18,03,35,2.40
2008,10,18,03,36,2.40
2008,10,18,03,37,2.40
2008,10,18,03,38,2.40
2008,10,18,03,39,2.40
2008,10,18,03,40,2.40
2008,10,18,03,41,2.40
2008,10,18,03,42,2.40
2008,10,18,03,43,2.30
2008,10,18,03,44,2.30
2008,10,18,03,45,2.30
2008,10,18,03,46,2.30
2008,10,18,03,47,2.30
2008,10,18,03,48,2.30
2008,10,18,03,49,2.30
2008,10,18,03,50,2.30
2008,10,18,03,51,2.30
2008,10,18,03,52,2.30
2008,10,18,03,53,2.30
2008,10,18,03,54,2.30
2008,10,18,03,55,2.30
2008,10,18,03,56,2.30
2008,10,18,03,57,2.30
2008,10,18,03,58,2.30
2008,10,18,03,59,2.30
2008,10,18,04,00,2.30
2008,10,18,04,01,2.30
2008,10,18,04,02,2.30
2008,10,18,04,03,2.30
2008,10,18,04,04,2.20
2008,10,18,04,27,2.10
2008,10,18,04,42,1.90
2008,10,18,04,53,1.90
2008,10,18,05,05,1.80
2008,10,18,05,19,1.80
2008,10,18,05,29,1.70
2008,10,18,05,33,1.60
2008,10,18,05,34,1.60
2008,10,18,05,35,1.60
2008,10,18,05,36,1.60
2008,10,18,05,37,1.60
2008,10,18,05,38,1.60
2008,10,18,05,39,1.60
2008,10,18,05,40,1.60
2008,10,18,05,41,1.50
2008,10,18,05,42,1.50
2008,10,18,05,43,1.50
2008,10,18,05,44,1.50
2008,10,18,05,45,1.50
2008,10,18,05,46,1.50
2008,10,18,05,47,1.50
2008,10,18,05,48,1.50
2008,10,18,05,49,1.60
2008,10,18,05,50,1.60
2008,10,18,05,51,1.60
2008,10,18,05,52,1.60
2008,10,18,05,53,1.60
2008,10,18,05,54,1.60
2008,10,18,05,55,1.60
2008,10,18,05,56,1.60
2008,10,18,05,57,1.60
2008,10,18,05,58,1.60
2008,10,18,05,59,1.60
2008,10,18,06,00,1.50
2008,10,18,06,01,1.50
2008,10,18,06,02,1.50
2008,10,18,06,03,1.50
2008,10,18,06,04,1.40
2008,10,18,06,05,1.40
2008,10,18,06,06,1.40
2008,10,18,06,07,1.40
2008,10,18,06,08,1.40
2008,10,18,06,09,1.40
2008,10,18,06,10,1.40
2008,10,18,06,11,1.40
2008,10,18,06,12,1.40
2008,10,18,06,13,1.30
2008,10,18,06,14,1.30
2008,10,18,06,15,1.30
2008,10,18,06,16,1.30
2008,10,18,06,17,1.30
2008,10,18,06,18,1.30
2008,10,18,06,19,1.30
2008,10,18,06,20,1.30
2008,10,18,06,21,1.30
2008,10,18,06,22,1.30
2008,10,18,06,23,1.30
2008,10,18,06,24,1.30
2008,10,18,06,25,1.30
2008,10,18,06,26,1.30
2008,10,18,06,27,1.30
2008,10,18,06,28,1.30
2008,10,18,06,29,1.30
2008,10,18,06,30,1.30
2008,10,18,06,31,1.30
2008,10,18,06,32,1.30
2008,10,18,06,33,1.30
2008,10,18,06,34,1.30
2008,10,18,06,35,1.30
2008,10,18,06,36,1.30
2008,10,18,06,37,1.20
2008,10,18,06,38,1.20
2008,10,18,06,39,1.20
2008,10,18,06,40,1.20
2008,10,18,06,41,1.20
2008,10,18,06,42,1.20
2008,10,18,06,43,1.20
2008,10,18,06,44,1.20
2008,10,18,06,45,1.20
2008,10,18,06,46,1.20
2008,10,18,06,47,1.20
2008,10,18,06,48,1.10
2008,10,18,06,49,1.10
2008,10,18,06,50,1.10
2008,10,18,06,51,1.10
2008,10,18,06,52,1.10
2008,10,18,06,53,1.10
2008,10,18,06,54,1.10
2008,10,18,06,55,1.10
2008,10,18,06,56,1.10
2008,10,18,06,57,1.10
2008,10,18,06,58,1.10
2008,10,18,06,59,1.10
2008,10,18,07,00,1.10
2008,10,18,07,01,1.10
2008,10,18,07,02,1.10
2008,10,18,07,03,1.10
2008,10,18,07,04,1.10
2008,10,18,07,05,1.00
2008,10,18,07,06,1.00
2008,10,18,07,07,1.00
2008,10,18,07,08,1.00
2008,10,18,07,09,1.00
2008,10,18,07,10,1.00
2008,10,18,07,11,1.00
2008,10,18,07,12,1.00
2008,10,18,07,13,1.00
2008,10,18,07,14,1.00
2008,10,18,07,15,1.00
2008,10,18,07,16,1.00
2008,10,18,07,17,1.00
2008,10,18,07,18,1.00
2008,10,18,07,19,1.00
2008,10,18,07,20,1.00
2008,10,18,07,21,1.00
2008,10,18,07,22,1.00
2008,10,18,07,23,0.90
2008,10,18,07,24,0.90
2008,10,18,07,25,0.90
2008,10,18,07,26,0.90
2008,10,18,07,27,0.90
2008,10,18,07,28,0.90
2008,10,18,07,29,0.80
2008,10,18,07,30,0.80
2008,10,18,07,31,0.80
2008,10,18,07,32,0.80
2008,10,18,07,33,0.80
2008,10,18,07,34,0.80
2008,10,18,07,35,0.80
2008,10,18,07,36,0.80
2008,10,18,07,37,0.80
2008,10,18,07,38,0.80
2008,10,18,07,39,0.80
2008,10,18,07,40,0.70
2008,10,18,07,41,0.70
2008,10,18,07,42,0.70
2008,10,18,07,43,0.70
2008,10,18,07,44,0.70
2008,10,18,07,45,0.70
2008,10,18,07,46,0.70
2008,10,18,07,47,0.70
2008,10,18,07,48,0.70
2008,10,18,07,49,0.70
2008,10,18,07,50,0.70
2008,10,18,07,51,0.70
2008,10,18,07,52,0.70
2008,10,18,07,53,0.70
2008,10,18,07,54,0.70
2008,10,18,07,55,0.70
2008,10,18,07,56,0.70
2008,10,18,07,57,0.70
2008,10,18,07,58,0.70
2008,10,18,07,59,0.70
2008,10,18,08,00,0.70
2008,10,18,08,01,0.70
2008,10,18,08,02,0.70
2008,10,18,08,03,0.70
2008,10,18,08,04,0.70
2008,10,18,08,05,0.70
2008,10,18,08,06,0.70
2008,10,18,08,07,0.70
2008,10,18,08,08,0.70
2008,10,18,08,09,0.70
2008,10,18,08,10,0.70
2008,10,18,08,11,0.80
2008,10,18,08,12,0.80
2008,10,18,08,13,0.80
2008,10,18,08,14,0.80
2008,10,18,08,15,0.80
2008,10,18,08,16,0.80
2008,10,18,08,17,0.80
2008,10,18,08,18,0.80
2008,10,18,08,19,0.80
2008,10,18,08,20,0.80
2008,10,18,08,21,0.80
2008,10,18,08,22,0.80
2008,10,18,08,23,0.80
2008,10,18,08,24,0.80
2008,10,18,08,25,0.80
2008,10,18,08,26,0.80
2008,10,18,08,27,0.80
2008,10,18,08,28,0.80
2008,10,18,08,29,0.80
2008,10,18,08,30,0.80
2008,10,18,08,31,0.80
2008,10,18,08,32,0.80
2008,10,18,08,33,0.80
2008,10,18,08,34,0.80
2008,10,18,08,35,0.90
2008,10,18,08,36,0.90
2008,10,18,08,37,0.90
2008,10,18,08,38,0.90
2008,10,18,08,39,1.00
2008,10,18,08,40,1.00
2008,10,18,08,41,1.10
2008,10,18,08,42,1.10
2008,10,18,08,43,1.10
2008,10,18,08,44,1.10
2008,10,18,08,45,1.10
2008,10,18,08,46,1.10
2008,10,18,08,47,1.20
2008,10,18,08,48,1.20
2008,10,18,08,49,1.30
2008,10,18,08,50,1.30
2008,10,18,08,51,1.30
2008,10,18,08,52,1.30
2008,10,18,08,53,1.30
2008,10,18,08,54,1.30
2008,10,18,08,55,1.30
2008,10,18,08,56,1.30
2008,10,18,08,57,1.30
2008,10,18,08,58,1.30
2008,10,18,08,59,1.30
2008,10,18,09,00,1.30
2008,10,18,09,01,1.30
2008,10,18,09,02,1.40
2008,10,18,09,03,1.50
2008,10,18,09,04,1.50
2008,10,18,09,05,1.60
2008,10,18,09,06,1.60
2008,10,18,09,07,1.70
2008,10,18,09,08,1.70
2008,10,18,09,09,1.80
2008,10,18,09,10,1.80
2008,10,18,09,11,1.90
2008,10,18,09,12,1.90
2008,10,18,09,13,2.00
2008,10,18,09,14,2.10
2008,10,18,09,15,2.20
2008,10,18,09,16,2.30
2008,10,18,09,17,2.30
2008,10,18,09,18,2.40
2008,10,18,09,19,2.50
2008,10,18,09,20,2.50
2008,10,18,09,21,2.60
2008,10,18,09,22,2.70
2008,10,18,09,23,2.70
2008,10,18,09,24,2.80
2008,10,18,09,25,2.90
2008,10,18,09,26,3.00
2008,10,18,09,27,3.00
2008,10,18,09,28,3.10
2008,10,18,09,29,3.20
2008,10,18,09,30,3.20
2008,10,18,09,31,3.30
2008,10,18,09,32,3.40
2008,10,18,09,33,3.50
2008,10,18,09,34,3.60
2008,10,18,09,35,3.70
2008,10,18,09,36,3.80
2008,10,18,09,37,3.80
2008,10,18,09,38,4.00
2008,10,18,09,39,4.10
2008,10,18,09,40,4.10
2008,10,18,09,41,4.20
2008,10,18,09,42,4.30
2008,10,18,09,43,4.30
2008,10,18,09,44,4.40
2008,10,18,09,45,4.40
2008,10,18,09,46,4.50
2008,10,18,09,47,4.60
2008,10,18,09,48,4.60
2008,10,18,09,49,4.70
2008,10,18,09,50,4.80
2008,10,18,09,51,4.80
2008,10,18,09,52,4.90
2008,10,18,09,53,5.00
2008,10,18,09,54,5.10
2008,10,18,09,55,5.20
2008,10,18,09,56,5.20
2008,10,18,09,57,5.30
2008,10,18,09,58,5.40
2008,10,18,09,59,5.60
2008,10,18,10,00,5.70
2008,10,18,10,01,5.80
2008,10,18,10,02,5.90
2008,10,18,10,03,6.00
2008,10,18,10,04,6.00
2008,10,18,10,05,6.10
2008,10,18,10,06,6.10
2008,10,18,10,07,6.20
2008,10,18,10,08,6.20
2008,10,18,10,09,6.30
2008,10,18,10,10,6.30
2008,10,18,10,11,6.30
2008,10,18,10,12,6.40
2008,10,18,10,13,6.50
2008,10,18,10,14,6.50
2008,10,18,10,15,6.60
2008,10,18,10,16,6.60
2008,10,18,10,17,6.70
2008,10,18,10,18,6.80
2008,10,18,10,19,6.90
2008,10,18,10,20,7.10
2008,10,18,10,21,7.20
2008,10,18,10,22,7.20
2008,10,18,10,23,7.30
2008,10,18,10,24,7.40
2008,10,18,10,25,7.50
2008,10,18,10,26,7.60
2008,10,18,10,27,7.60
2008,10,18,10,28,7.70
2008,10,18,10,29,7.80
2008,10,18,10,30,7.90
2008,10,18,10,31,7.90
2008,10,18,10,32,8.00
2008,10,18,10,33,8.20
2008,10,18,10,34,8.30
2008,10,18,10,35,8.40
2008,10,18,10,36,8.50
2008,10,18,10,37,8.60
2008,10,18,10,38,8.70
2008,10,18,10,39,8.80
2008,10,18,10,40,8.80
2008,10,18,10,41,8.80
2008,10,18,10,42,8.90
2008,10,18,10,43,8.90
2008,10,18,10,44,8.90
2008,10,18,10,45,9.00
2008,10,18,10,46,9.00
2008,10,18,10,47,9.10
2008,10,18,10,48,9.10
2008,10,18,10,49,9.20
2008,10,18,10,50,9.20
2008,10,18,10,51,9.30
2008,10,18,10,52,9.30
2008,10,18,10,53,9.30
2008,10,18,10,54,9.30
2008,10,18,10,55,9.40
2008,10,18,10,56,9.40
2008,10,18,10,57,9.50
2008,10,18,10,58,9.50
2008,10,18,10,59,9.60
2008,10,18,11,00,9.60
2008,10,18,11,01,9.60
2008,10,18,11,02,9.70
2008,10,18,11,03,9.70
2008,10,18,11,04,9.70
2008,10,18,11,05,9.70
2008,10,18,11,06,9.70
2008,10,18,11,07,9.70
2008,10,18,11,08,9.70
2008,10,18,11,09,9.80
2008,10,18,11,10,9.80
2008,10,18,11,11,9.80
2008,10,18,11,12,9.80
2008,10,18,11,13,9.80
2008,10,18,11,14,9.80
2008,10,18,11,15,9.80
2008,10,18,11,16,9.80
2008,10,18,11,17,9.90
2008,10,18,11,18,9.90
2008,10,18,11,19,9.90
2008,10,18,11,20,10.00
2008,10,18,11,21,10.00
2008,10,18,11,22,10.00
2008,10,18,11,23,10.00
2008,10,18,11,24,10.00
2008,10,18,11,25,10.00
2008,10,18,11,26,10.00
2008,10,18,11,27,10.00
2008,10,18,11,28,10.00
2008,10,18,11,29,10.00
2008,10,18,11,30,10.00
2008,10,18,11,31,10.00
2008,10,18,11,32,10.10
2008,10,18,11,33,10.10
2008,10,18,11,34,10.10
2008,10,18,11,35,10.10
2008,10,18,11,36,10.10
2008,10,18,11,37,10.10
2008,10,18,11,38,10.10
2008,10,18,11,39,10.10
2008,10,18,11,40,10.00
2008,10,18,11,41,10.00
2008,10,18,11,42,10.00
2008,10,18,11,43,9.90
2008,10,18,11,44,9.90
2008,10,18,11,45,9.90
2008,10,18,11,46,9.80
2008,10,18,11,47,9.80
2008,10,18,11,48,9.70
2008,10,18,11,49,9.70
2008,10,18,11,50,9.70
2008,10,18,11,51,9.60
2008,10,18,11,52,9.60
2008,10,18,11,53,9.60
2008,10,18,11,54,9.60
2008,10,18,11,55,9.50
2008,10,18,11,56,9.50
2008,10,18,11,57,9.50
2008,10,18,11,58,9.40
2008,10,18,11,59,9.40
2008,10,18,12,00,9.40
2008,10,18,12,01,9.40
2008,10,18,12,02,9.40
2008,10,18,12,03,9.40
2008,10,18,12,04,9.40
2008,10,18,12,05,9.40
2008,10,18,12,06,9.40
2008,10,18,12,07,9.40
2008,10,18,12,08,9.40
2008,10,18,12,09,9.40
2008,10,18,12,10,9.40
2008,10,18,12,11,9.50
2008,10,18,12,12,9.50
2008,10,18,12,13,9.50
2008,10,18,12,14,9.50
2008,10,18,12,15,9.60
2008,10,18,12,16,9.50
2008,10,18,12,17,9.60
2008,10,18,12,18,9.60
2008,10,18,12,19,9.60
2008,10,18,12,20,9.60
2008,10,18,12,21,9.60
2008,10,18,12,22,9.60
2008,10,18,12,23,9.60
2008,10,18,12,24,9.60
2008,10,18,12,25,9.60
2008,10,18,12,26,9.60
2008,10,18,12,27,9.60
2008,10,18,12,28,9.60
2008,10,18,12,29,9.60
2008,10,18,12,30,9.60
2008,10,18,12,31,9.60
2008,10,18,12,32,9.60
2008,10,18,12,33,9.60
2008,10,18,12,34,9.60
2008,10,18,12,35,9.60
2008,10,18,12,36,9.60
2008,10,18,12,37,9.60
2008,10,18,12,38,9.60
2008,10,18,12,39,9.60
2008,10,18,12,40,9.60
2008,10,18,12,41,9.60
2008,10,18,12,42,9.60
2008,10,18,12,43,9.70
2008,10,18,12,44,9.70
2008,10,18,12,45,9.80
2008,10,18,12,46,9.80
2008,10,18,12,47,9.90
2008,10,18,12,48,9.90
2008,10,18,12,49,10.00
2008,10,18,12,50,10.10
2008,10,18,12,51,10.10
2008,10,18,12,52,10.10
2008,10,18,12,53,10.10
2008,10,18,12,54,10.10
2008,10,18,12,55,10.10
2008,10,18,12,56,10.10
2008,10,18,12,57,10.10
2008,10,18,12,58,10.10
2008,10,18,12,59,10.10
2008,10,18,13,00,10.00
2008,10,18,13,01,10.00
2008,10,18,13,02,10.00
2008,10,18,13,03,10.00
2008,10,18,13,04,9.90
2008,10,18,13,05,9.90
2008,10,18,13,06,9.90
2008,10,18,13,07,9.90
2008,10,18,13,08,9.80
2008,10,18,13,09,9.80
2008,10,18,13,10,9.80
2008,10,18,13,11,9.80
2008,10,18,13,12,9.80
2008,10,18,13,13,9.80
2008,10,18,13,14,9.80
2008,10,18,13,15,9.80
2008,10,18,13,16,9.80
2008,10,18,13,17,9.80
2008,10,18,13,18,9.70
2008,10,18,13,19,9.70
2008,10,18,13,20,9.70
2008,10,18,13,21,9.70
2008,10,18,13,22,9.70
2008,10,18,13,23,9.70
2008,10,18,13,24,9.70
2008,10,18,13,25,9.70
2008,10,18,13,26,9.70
2008,10,18,13,27,9.70
2008,10,18,13,28,9.70
2008,10,18,13,29,9.70
2008,10,18,13,30,9.70
2008,10,18,13,31,9.70
2008,10,18,13,32,9.70
2008,10,18,13,33,9.70
2008,10,18,13,34,9.70
2008,10,18,13,35,9.70
2008,10,18,13,36,9.70
2008,10,18,13,37,9.70
2008,10,18,13,38,9.70
2008,10,18,13,39,9.60
2008,10,18,13,40,9.60
2008,10,18,13,41,9.60
2008,10,18,13,42,9.60
2008,10,18,13,43,9.60
2008,10,18,13,44,9.60
2008,10,18,13,45,9.60
2008,10,18,13,46,9.60
2008,10,18,13,47,9.60
2008,10,18,13,48,9.60
2008,10,18,13,49,9.60
2008,10,18,13,50,9.60
2008,10,18,13,51,9.60
2008,10,18,13,52,9.60
2008,10,18,13,53,9.60
2008,10,18,13,54,9.60
2008,10,18,13,55,9.60
2008,10,18,13,56,9.60
2008,10,18,13,57,9.60
2008,10,18,13,58,9.60
2008,10,18,13,59,9.60
2008,10,18,14,00,9.60
2008,10,18,14,01,9.60
2008,10,18,14,02,9.60
2008,10,18,14,03,9.60
2008,10,18,14,04,9.60
2008,10,18,14,05,9.50
2008,10,18,14,06,9.50
2008,10,18,14,07,9.50
2008,10,18,14,08,9.50
2008,10,18,14,09,9.50
2008,10,18,14,10,9.50
2008,10,18,14,11,9.50
2008,10,18,14,12,9.50
2008,10,18,14,13,9.50
2008,10,18,14,14,9.50
2008,10,18,14,15,9.50
2008,10,18,14,16,9.60
2008,10,18,14,17,9.50
2008,10,18,14,18,9.50
2008,10,18,14,19,9.60
2008,10,18,14,20,9.60
2008,10,18,14,21,9.60
2008,10,18,14,22,9.60
2008,10,18,14,23,9.60
2008,10,18,14,24,9.60
2008,10,18,14,25,9.60
2008,10,18,14,26,9.60
2008,10,18,14,27,9.60
2008,10,18,14,28,9.60
2008,10,18,14,29,9.60
2008,10,18,14,30,9.60
2008,10,18,14,31,9.60
2008,10,18,14,32,9.60
2008,10,18,14,33,9.60
2008,10,18,14,34,9.60
2008,10,18,14,35,9.60
2008,10,18,14,36,9.60
2008,10,18,14,37,9.60
2008,10,18,14,38,9.60
2008,10,18,14,39,9.60
2008,10,18,14,40,9.60
2008,10,18,14,41,9.60
2008,10,18,14,42,9.60
2008,10,18,14,43,9.60
2008,10,18,14,44,9.60
2008,10,18,14,45,9.60
2008,10,18,14,46,9.60
2008,10,18,14,47,9.60
2008,10,18,14,48,9.60
2008,10,18,14,49,9.60
2008,10,18,14,50,9.60
2008,10,18,14,51,9.60
2008,10,18,14,52,9.60
2008,10,18,14,53,9.60
2008,10,18,14,54,9.60
2008,10,18,14,55,9.60
2008,10,18,14,56,9.60
2008,10,18,14,57,9.60
2008,10,18,14,58,9.60
2008,10,18,14,59,9.60
2008,10,18,15,00,9.60
2008,10,18,15,01,9.60
2008,10,18,15,02,9.60
2008,10,18,15,03,9.60
2008,10,18,15,04,9.60
2008,10,18,15,05,9.60
2008,10,18,15,06,9.60
2008,10,18,15,07,9.60
2008,10,18,15,08,9.60
2008,10,18,15,09,9.60
2008,10,18,15,10,9.70
2008,10,18,15,11,9.70
2008,10,18,15,12,9.70
2008,10,18,15,13,9.70
2008,10,18,15,14,9.70
2008,10,18,15,15,9.70
2008,10,18,15,16,9.70
2008,10,18,15,17,9.70
2008,10,18,15,18,9.70
2008,10,18,15,19,9.70
2008,10,18,15,20,9.70
2008,10,18,15,21,9.70
2008,10,18,15,22,9.70
2008,10,18,15,23,9.70
2008,10,18,15,24,9.70
2008,10,18,15,25,9.70
2008,10,18,15,26,9.70
2008,10,18,15,27,9.70
2008,10,18,15,28,9.80
2008,10,18,15,29,9.80
2008,10,18,15,30,9.80
2008,10,18,15,31,9.80
2008,10,18,15,32,9.80
2008,10,18,15,33,9.80
2008,10,18,15,34,9.80
2008,10,18,15,35,9.80
2008,10,18,15,36,9.80
2008,10,18,15,37,9.80
2008,10,18,15,38,9.80
2008,10,18,15,39,9.80
2008,10,18,15,40,9.80
2008,10,18,15,41,9.70
2008,10,18,15,42,9.70
2008,10,18,15,43,9.70
2008,10,18,15,44,9.70
2008,10,18,15,45,9.70
2008,10,18,15,46,9.70
2008,10,18,15,47,9.70
2008,10,18,15,48,9.70
2008,10,18,15,49,9.60
2008,10,18,15,50,9.60
2008,10,18,15,51,9.60
2008,10,18,15,52,9.60
2008,10,18,15,53,9.60
2008,10,18,15,54,9.60
2008,10,18,15,55,9.60
2008,10,18,15,56,9.60
2008,10,18,15,57,9.60
2008,10,18,15,58,9.60
2008,10,18,15,59,9.60
2008,10,18,16,00,9.60
2008,10,18,16,01,9.60
2008,10,18,16,02,9.60
2008,10,18,16,03,9.60
2008,10,18,16,04,9.60
2008,10,18,16,05,9.50
2008,10,18,16,06,9.50
2008,10,18,16,07,9.50
2008,10,18,16,08,9.50
2008,10,18,16,09,9.50
2008,10,18,16,10,9.40
2008,10,18,16,11,9.40
2008,10,18,16,12,9.40
2008,10,18,16,13,9.40
2008,10,18,16,14,9.40
2008,10,18,16,15,9.40
2008,10,18,16,16,9.40
2008,10,18,16,17,9.30
2008,10,18,16,18,9.30
2008,10,18,16,19,9.30
2008,10,18,16,20,9.30
2008,10,18,16,21,9.30
2008,10,18,16,22,9.30
2008,10,18,16,23,9.30
2008,10,18,16,24,9.30
2008,10,18,16,25,9.30
2008,10,18,16,26,9.30
2008,10,18,16,27,9.30
2008,10,18,16,28,9.20
2008,10,18,16,29,9.20
2008,10,18,16,30,9.20
2008,10,18,16,31,9.30
2008,10,18,16,32,9.30
2008,10,18,16,33,9.20
2008,10,18,16,34,9.20
2008,10,18,16,35,9.20
2008,10,18,16,36,9.20
2008,10,18,16,37,9.20
2008,10,18,16,38,9.10
2008,10,18,16,39,9.10
2008,10,18,16,40,9.10
2008,10,18,16,41,9.10
2008,10,18,16,42,9.10
2008,10,18,16,43,9.10
2008,10,18,16,44,9.10
2008,10,18,16,45,9.00
2008,10,18,16,46,9.00
2008,10,18,16,47,9.00
2008,10,18,16,48,9.00
2008,10,18,16,49,9.00
2008,10,18,16,50,9.00
2008,10,18,16,51,9.00
2008,10,18,16,52,9.00
2008,10,18,16,53,8.90
2008,10,18,16,54,8.90
2008,10,18,16,55,8.90
2008,10,18,16,56,8.90
2008,10,18,16,57,8.80
2008,10,18,16,58,8.80
2008,10,18,16,59,8.80
2008,10,18,17,00,8.80
2008,10,18,17,01,8.80
2008,10,18,17,02,8.80
2008,10,18,17,03,8.80
2008,10,18,17,04,8.80
2008,10,18,17,05,8.80
2008,10,18,17,06,8.80
2008,10,18,17,07,8.80
2008,10,18,17,08,8.80
2008,10,18,17,09,8.80
2008,10,18,17,10,8.80
2008,10,18,17,11,8.80
2008,10,18,17,12,8.80
2008,10,18,17,13,8.80
2008,10,18,17,14,8.80
2008,10,18,17,15,8.70
2008,10,18,17,16,8.70
2008,10,18,17,17,8.70
2008,10,18,17,18,8.70
2008,10,18,17,19,8.60
2008,10,18,17,20,8.60
2008,10,18,17,21,8.60
2008,10,18,17,22,8.60
2008,10,18,17,23,8.50
2008,10,18,17,24,8.50
2008,10,18,17,25,8.40
2008,10,18,17,26,8.40
2008,10,18,17,27,8.40
2008,10,18,17,28,8.30
2008,10,18,17,29,8.30
2008,10,18,17,30,8.20
2008,10,18,17,31,8.20
2008,10,18,17,32,8.20
2008,10,18,17,33,8.10
2008,10,18,17,34,8.10
2008,10,18,17,35,8.10
2008,10,18,17,36,8.00
2008,10,18,17,37,8.00
2008,10,18,17,38,7.90
2008,10,18,17,39,7.90
2008,10,18,17,40,7.80
2008,10,18,17,41,7.80
2008,10,18,17,42,7.80
2008,10,18,17,43,7.80
2008,10,18,17,44,7.70
2008,10,18,17,45,7.70
2008,10,18,17,46,7.70
2008,10,18,17,47,7.70
2008,10,18,17,48,7.60
2008,10,18,17,49,7.60
2008,10,18,17,50,7.60
2008,10,18,17,51,7.60
2008,10,18,17,52,7.50
2008,10,18,17,53,7.50
2008,10,18,17,54,7.40
2008,10,18,17,55,7.40
2008,10,18,17,56,7.40
2008,10,18,17,57,7.30
2008,10,18,17,58,7.30
2008,10,18,17,59,7.30
2008,10,18,18,00,7.30
2008,10,18,18,01,7.20
2008,10,18,18,02,7.20
2008,10,18,18,03,7.20
2008,10,18,18,04,7.20
2008,10,18,18,05,7.20
2008,10,18,18,06,7.20
2008,10,18,18,07,7.10
2008,10,18,18,08,7.10
2008,10,18,18,09,7.10
2008,10,18,18,10,7.00
2008,10,18,18,11,7.00
2008,10,18,18,12,6.90
2008,10,18,18,13,6.90
2008,10,18,18,14,6.90
2008,10,18,18,15,6.80
2008,10,18,18,16,6.80
2008,10,18,18,17,6.80
2008,10,18,18,18,6.80
2008,10,18,18,19,6.70
2008,10,18,18,20,6.70
2008,10,18,18,21,6.60
2008,10,18,18,22,6.60
2008,10,18,18,23,6.60
2008,10,18,18,24,6.60
2008,10,18,18,25,6.50
2008,10,18,18,26,6.50
2008,10,18,18,27,6.40
2008,10,18,18,28,6.40
2008,10,18,18,29,6.30
2008,10,18,18,30,6.30
2008,10,18,18,31,6.20
2008,10,18,18,32,6.20
2008,10,18,18,33,6.20
2008,10,18,18,34,6.10
2008,10,18,18,35,6.10
2008,10,18,18,36,6.00
2008,10,18,18,37,5.90
2008,10,18,18,38,5.90
2008,10,18,18,39,5.80
2008,10,18,18,40,5.80
2008,10,18,18,41,5.70
2008,10,18,18,42,5.70
2008,10,18,18,43,5.60
2008,10,18,18,44,5.50
2008,10,18,18,45,5.50
2008,10,18,18,46,5.50
2008,10,18,18,47,5.40
2008,10,18,18,48,5.40
2008,10,18,18,49,5.30
2008,10,18,18,50,5.30
2008,10,18,18,51,5.30
2008,10,18,18,52,5.30
2008,10,18,18,53,5.30
2008,10,18,18,54,5.20
2008,10,18,18,55,5.20
2008,10,18,18,56,5.20
2008,10,18,18,57,5.10
2008,10,18,18,58,5.10
2008,10,18,18,59,5.10
2008,10,18,19,00,5.10
2008,10,18,19,01,5.00
2008,10,18,19,02,5.00
2008,10,18,19,03,5.00
2008,10,18,19,04,4.90
2008,10,18,19,05,4.90
2008,10,18,19,06,4.90
2008,10,18,19,07,4.90
2008,10,18,19,08,4.80
2008,10,18,19,09,4.80
2008,10,18,19,10,4.80
2008,10,18,19,11,4.80
2008,10,18,19,12,4.70
2008,10,18,19,13,4.70
2008,10,18,19,14,4.70
2008,10,18,19,15,4.70
2008,10,18,19,16,4.60
2008,10,18,19,17,4.60
2008,10,18,19,18,4.60
2008,10,18,19,19,4.50
2008,10,18,19,20,4.50
2008,10,18,19,21,4.50
2008,10,18,19,22,4.40
2008,10,18,19,23,4.40
2008,10,18,19,24,4.40
2008,10,18,19,25,4.40
2008,10,18,19,26,4.30
2008,10,18,19,27,4.30